Погода Шамахы

Погода Шамахы : погода сейчас, прогноз погоды и архив. Всё, что Вы хотите узнать о погоде Шамахы!

Поиск расширенной информации на нашем сайте:

Другие новости

Новости СМИ2

Главная страница сайта

Новости сайта

03.07.2017

Напоминаем, что на нашем специализированном сайте Метеоцентр.Азия вы можете получить высокодетализированные автоматические прогнозы погоды по пунктам России, СНГ и мира в авиационном формате (включающие направление и скорость ветра, видимость, явления погоды, количество и форму облачности, нижнюю и верхнюю границу облачности).


Погода Шамахы - сегодня

Время (UTC), дата Ветер
(°,м/с) 
Видим.   Явления Облачность Т
(°С)
Тd
(°С)
f(%) Тe
(°С)
Pmin
(гПа)
dP
(гПа)
Po
(мм)
O2
(г/м3)
Тmin Tmax R s Состояние
почвы
21 20.09.17 340 (С) 20000 м    ясно 
+20.1 +10.5 54 +24  1017.9  -0.5  693  258           
00 21.09.17 тихо ()   20000 м    ясно 
+20.6 +5.8 38 +21  1017.4  -0.5  692  258           
03 21.09.17 тихо ()   20000 м    3/3 1000 м 
[Cu hum]
+20.2 +2.7 31 +20  1018.1  692  259           
06 21.09.17 190 (Ю) 20000 м    ясно 
+24.4 +5 29 +24  1016.5  0.4  693  255  +19.2         
09 21.09.17 190 (Ю) 20000 м    4/0 верхняя 
[Ci fib]
+27.8 +4.5 23 +28  1015.4  -0.5  692  252           
12 21.09.17 140 (ЮВ) 20000 м    3/0 верхняя 
[Ci fib]
+27.4 +3 21 +27  1014  -0.9  692  253           
15 21.09.17 тихо ()   20000 м    3/0 верхняя 
[Ci fib]
+23.5 +7.3 35 +24  1015.3  692  255           
18 21.09.17 350 (С) 20000 м    ясно 
+20.8 +9.4 48 +23  1017.3  0.9  692  257    +28.3       
00 22.09.17 360 (С) 20000 м    ясно 
+19.8 +8.5 48 +22  1016.5  -0.7  692  258           
03 22.09.17 300 (СЗ) 20000 м    ясно 
+2.1 -2.2 73 +1  1015.4    691  277           
09 22.09.17 180 (Ю) 20000 м    ясно 
+27.1 +0 17 +27  1014.3  -0.5  692  253           
12 22.09.17 180 (Ю) 20000 м    ясно 
+28.2 +4 21 +28  1012  -1.1  691  252           
15 22.09.17 190 (Ю) 20000 м    3/0 верхняя 
[Ci fib]
+23.1 +12 50 +29  1013.9  -0.1  691  254           
18 22.09.17 190 (Ю) 20000 м    3/0 верхняя 
[Ci fib]
+23.1 +12 50 +29  1013.9  -0.1  691  254           
21 22.09.17 230 (ЮЗ) 20000 м    ясно 
+19.8 +10.4 55 +24  1015.9  692  258           
00 23.09.17 100 (В) 20000 м    ясно 
+19.6 +6.2 42 +21  1017  0.4  692  259           
03 23.09.17 350 (С) 20000 м    3/0 верхняя 
[Ci fib]
+19.8 +5.6 39 +21  1018.1  0.6  692  259           
06 23.09.17 170 (Ю) 20000 м    6/6 1000 м 
[Cu med, cong]
+23.3 +7.1 35 +23  1017.7  0.9  693  256  +19.3         
09 23.09.17 180 (Ю) 20000 м    6/6 1000 м 
[Cu med, cong]
+25.3 +5 27 +25  1017.1  0.1  693  255           
12 23.09.17 180 (Ю) 20000 м    3/0 верхняя 
[Ci fib]
+26.7 +8 31 +27  1016.1  -0.4  693  253           
15 23.09.17 300 (СЗ) 20000 м    4/0 верхняя 
[Ci fib]
+23.1 +11.1 47 +27  1016.7  693  255           
18 23.09.17 220 (ЮЗ) 20000 м    6/6 600 м 
[Sc]
+20 +12.2 61 +26  1019  694  258    +27.3       
21 23.09.17 010 (С) 20000 м    6/6 600 м 
[Sc]
+19.7 +11.5 59 +26  1018.8  -0.2  693  258           
00 24.09.17 тихо ()   20000 м    ясно 
+18.6 +12.5 68 +25  1019.7  0.2  694  259           
03 24.09.17 020 (С) 20000 м    3/0 верхняя 
[Ci fib]
+17.9 +9.5 58 +21  1020.3  0.6  694  261           
Время (UTC), дата Ветер
(°,м/с) 
Видим.   Явления Облачность Т
(°С)
Тd
(°С)
f(%) Тe
(°С)
Pmin
(гПа)
dP
(гПа)
Po
(мм)
O2
(г/м3)
Тmin Tmax R s Состояние
почвы

Для получения пояснительной информации подведите курсор к названию столбца.

ПОГОДА Шамахы - архив

Всё, что Вы хотите узнать о погоде Шамахы - удобно и подробно!

Выберите нужную дату (начиная с 1 января 2015* года) и нажмите кнопку "Найти".
Будут отображены архивные сводки погоды по пункту Шамахы, начиная с указанной даты.


Отображать данные в формате CSV (для использования в таблицах Excel)


Внимание! Наш архив погоды предназначен исключительно для личного некоммерческого использования в познавательных целях. Если Вам необходимы официальные справки о состоянии погоды (для производственных, юридических, коммерческих и т.п. целей), обращайтесь в органы Росгидромета.

*Примечание: данная дата относится к архиву по метеостанциям СССР (Россия, СНГ, Балтия).
Архив по метеостанциям Зарубежной Европы и Азии (кроме Китая) хранится 10 дней, по другим регионам земного шара (Китай, Африка, Америка, Австралия, Океания) - 1 день.

Шамахы - район местоположения метеостанции


Название, широта, долгота, высота метеостанции:
Шамахы 40.6°ш. 48.6°д. 749 м над ур. моря [Азербайджан]

Дополнительная информация

В oтличие oт бoльшинства пoгoдных сайтoв мы публикуем пoдрoбную метеoинфoрмацию в детальнoм прoфессиoнальнoм фoрмате.

Характеристики температуры и влажнoсти вoздуха измеряются на высoте 2 м в тени вдали oт зданий и деревьев.
Скoрoсть ветра измеряется на высoте 10 м (на урoвне рoста челoвека скoрoсть ветра ниже в 1.5-2 раза). Если метеoстанция нахoдится в гoрoде или в лесу, тo скoрoсть ветра занижена на 2-4 м/с пo сравнению с oткрытым местoм. Скoрoсть ветра над акватoриями крупных рек и oзёр, а также на вершинах хoлмoв на 2-5 м/с выше, чем в oбычных услoвиях.
Атмoсфернoе давление в разных тoчках местнoсти мoжет значительнo oтличаться oт давления на метеoстанции, в зависимoсти oт услoвий рельефа (при пoдъёме на 10 м давление пoнижается примернo на 1 мм рт.ст.).